This is the latest recevied weather packets stored in our database for station/object RUSSARO. If no packets are shown the sender has not sent any weather packets the latest 10 day(s).
| Time | Temp. | Humidity | Pressure | Rain* | Wind** | Luminosity | Snow |
|---|---|---|---|---|---|---|---|
| 1778072843 | 8.33° C | 62% | 1015.2 hPa | 0 mm | - | - | - |
| 1778071643 | 8.33° C | 63% | 1015.1 hPa | 0 mm | - | - | - |
| 1778070443 | 8.33° C | 69% | 1015.2 hPa | 0 mm | - | - | - |
| 1778069243 | 8.33° C | 68% | 1015.2 hPa | 0 mm | - | - | - |
| 1778068044 | 8.33° C | 69% | 1015.2 hPa | 0 mm | - | - | - |
| 1778066843 | 8.33° C | 69% | 1015.2 hPa | 0 mm | - | - | - |
| 1778065643 | 7.78° C | 73% | 1015.1 hPa | 0 mm | - | - | - |
| 1778064444 | 7.78° C | 74% | 1015.2 hPa | 0 mm | - | - | - |
| 1778063244 | 7.78° C | 79% | 1015.1 hPa | 0 mm | - | - | - |
| 1778062045 | 7.22° C | 76% | 1015 hPa | 0 mm | - | - | - |
| 1778060845 | 7.22° C | 79% | 1014.9 hPa | 0 mm | - | - | - |
| 1778059644 | 7.22° C | 75% | 1014.6 hPa | 0 mm | - | - | - |
| 1778058444 | 8.89° C | 64% | 1014.4 hPa | 0 mm | - | - | - |
| 1778057245 | 8.33° C | 63% | 1014.3 hPa | 0 mm | - | - | - |
| 1778056044 | 8.33° C | 66% | 1014.2 hPa | 0 mm | - | - | - |
| 1778054844 | 7.78° C | 70% | 1014.2 hPa | 0 mm | - | - | - |
| 1778053644 | 7.22° C | 77% | 1014.2 hPa | 0 mm | - | - | - |
| 1778052445 | 7.78° C | 78% | 1014 hPa | 0 mm | - | - | - |
| 1778051244 | 7.22° C | 78% | 1013.8 hPa | 0 mm | - | - | - |
| 1778050044 | 7.22° C | 76% | 1013.6 hPa | 0 mm | - | - | - |
| 1778048844 | 6.67° C | 74% | 1013.5 hPa | 0 mm | - | - | - |
| 1778047644 | 7.22° C | 74% | 1013.4 hPa | 0 mm | - | - | - |
| 1778046443 | 6.67° C | 77% | 1013.2 hPa | 0 mm | - | - | - |
| 1778045245 | 6.11° C | 79% | 1013.1 hPa | 0 mm | - | - | - |
| 1778044044 | 6.11° C | 73% | 1012.9 hPa | 0 mm | - | - | - |
* Rain latest hour (hover to see other rain measurements)
** Current wind speed in m/s (hover to see current wind gust speed)